Content
SEND FEEDBACK

Daily
Averages
Monthly
Summary
United Kingdom

WINCHESTER, ENGLAND


Home > Europe > United Kingdom > England
Elevation: 297 feet     Latitude: 51 09N     Longitude: 001 34W

WEATHER
 
SELECT A DAY
Number of Records: 60,211;   Date Range: 10/20/98 - 9/14/14
 
SHARE

PRINT THIS DATA

[ ← Previous Day ]
WEATHER ALMANAC - SEPTEMBER 21, 2013
[ Next Day → ]
[ °C ]   °F
Weather ElementAverageHighLow
Temperature57.5 °F64.4 °F (12:50 pm)46.4 °F (12:50 am)
Dewpoint54.2 °F61 °F (6:50 pm)44.6 °F (12:50 am)
Humidity88.1 %94 % (7:50 pm)75 % (12:50 pm)
Barometer30.25 in30.33 in (10:50 pm)30.21 in (12:50 am)
Wind Speed5.3 mph10.4 mph (10:50 am)
Weather ElementAverage
Visibility6.2 mi
Wind DirectionS (180.4 °)

Weather ElementTotal
Precipitation---
Heating Degree Days9.6 (Base 65)
Growing Degree Days5.4 (Base 50)
Averaged from 27 records on September 21, 2013
WEATHER CONDITIONS BREAKOUT
WIND DIRECTION BREAKOUT
WEATHER BY HOUR - SEPTEMBER 21, 2013
[ °C ]   °F
Local TimeTemperatureDewpointHumidityBarometerVisibilityWind DirectionWind SpeedGust SpeedPrecipitationEventsConditions
12:50 AM46.4 °F44.6 °F93 %30.21 in6.2 miENE (70°)2.3 mph
1:50 AM48.2 °F46.4 °F93 %30.21 in6.2 miNorth (10°)2.3 mphMostly Cloudy
2:50 AM46.4 °F44.6 °F93 %30.21 in6.2 miCalmScattered Clouds
3:50 AM47.0 °F45.0 °F91 %30.22 in5.0 miCalmMostly Cloudy
3:50 AM48.2 °F44.6 °F87 %30.21 in5.0 miCalmMostly Cloudy
4:50 AM48.2 °F44.6 °F87 %30.21 in5.0 miWest (260°)1.2 mphMostly Cloudy
5:50 AM48.2 °F46.4 °F93 %30.21 in5.0 miSSW (200°)3.5 mphOvercast
6:50 AM49.0 °F47.0 °F90 %30.23 in5.0 miSSE (160°)3.5 mphMostly Cloudy
7:50 AM51.8 °F48.2 °F88 %30.21 in4.3 miSouth (170°)4.6 mphScattered Clouds
8:50 AM53.6 °F50.0 °F88 %30.21 in5.6 miSSE (160°)4.6 mphMostly Cloudy
9:50 AM58.0 °F53.0 °F77 %30.24 in7.0 miSSW (200°)8.1 mphOvercast
9:50 AM57.2 °F53.6 °F88 %30.21 in6.2 miSSW (200°)8.1 mphOvercast
10:50 AM60.8 °F55.4 °F82 %30.24 in6.2 miSW (220°)10.4 mphMostly Cloudy
11:50 AM62.6 °F57.2 °F82 %30.24 in6.2 miSSW (210°)10.4 mphOvercast
12:50 PM64.0 °F58.0 °F75 %30.27 in11.0 miSW (220°)10.4 mphOvercast
12:50 PM64.4 °F59.0 °F83 %30.24 in6.2 miSW (220°)10.4 mphOvercast
1:50 PM64.4 °F59.0 °F83 %30.24 in6.2 miSSW (210°)10.4 mphScattered Clouds
3:50 PM64.0 °F60.0 °F82 %30.27 in11.0 miSSW (210°)6.9 mphOvercast
5:50 PM64.4 °F60.8 °F88 %30.27 in6.2 miSW (220°)6.9 mphMostly Cloudy
6:50 PM64.4 °F60.8 °F88 %30.27 in6.2 miSSW (210°)6.9 mphMostly Cloudy
6:50 PM64.0 °F61.0 °F87 %30.29 in8.0 miSSW (210°)6.9 mphScattered Clouds
7:50 PM62.6 °F60.8 °F94 %30.30 in5.6 miSW (220°)6.9 mphMostly Cloudy
8:50 PM62.6 °F60.8 °F94 %30.30 in6.2 miSW (220°)3.5 mphOvercast
9:50 PM63.0 °F61.0 °F91 %30.32 in6.0 miSW (230°)4.6 mphMostly Cloudy
9:50 PM62.6 °F60.8 °F94 %30.30 in5.6 miSW (230°)4.6 mphMostly Cloudy
10:50 PM62.6 °F60.8 °F94 %30.33 in5.6 miWSW (240°)4.6 mphOvercast
11:50 PM62.6 °F60.8 °F94 %30.33 in5.6 miSouth (190°)2.3 mphMostly Cloudy
Hourly data recorded from EGVP, located miles away from Winchester, England







STORIES FROM OUR PARTNERS